| time (UTC) | temp C | wind direction | speed KPH | gust KPH | rain 1hr cm | rain 24hr cm | rain mn cm | humidity % | barometer mb |
| 20260509064344 | 19 | 152 | 8.0 | 16.1 | 0.00 | 0.00 | 0.00 | 71 | 1022.8 |
| 20260509063341 | 20 | 179 | 8.0 | 19.3 | 0.00 | 0.00 | 0.00 | 70 | 1022.7 |
| 20260509062320 | 20 | 167 | 6.4 | 19.3 | 0.00 | 0.00 | 0.00 | 70 | 1022.6 |
| 20260509061334 | 20 | 138 | 8.0 | 14.5 | 0.00 | 0.00 | 0.00 | 69 | 1022.5 |
| 20260509060339 | 20 | 144 | 8.0 | 14.5 | 0.00 | 0.00 | 0.00 | 68 | 1022.5 |
| 20260509055325 | 20 | 141 | 6.4 | 12.9 | 0.00 | 0.00 | 0.00 | 66 | 1022.5 |
| 20260509054301 | 20 | 143 | 8.0 | 16.1 | 0.00 | 0.00 | 0.00 | 68 | 1022.4 |
| 20260509053242 | 20 | 165 | 6.4 | 14.5 | 0.00 | 0.00 | 0.00 | 68 | 1022.3 |
| 20260509052232 | 20 | 112 | 6.4 | 14.5 | 0.00 | 0.00 | 0.00 | 66 | 1022.3 |
| 20260509051159 | 20 | 113 | 6.4 | 14.5 | 0.00 | 0.00 | 0.00 | 67 | 1022.2 |
| 20260509050202 | 20 | 164 | 6.4 | 16.1 | 0.00 | 0.00 | 0.00 | 67 | 1022.2 |
| 20260509045158 | 20 | 141 | 8.0 | 16.1 | 0.00 | 0.00 | 0.00 | 65 | 1022.3 |
| 20260509044130 | 20 | 199 | 8.0 | 14.5 | 0.00 | 0.00 | 0.00 | 66 | 1022.3 |
| 20260509043153 | 20 | 176 | 9.7 | 16.1 | 0.00 | 0.00 | 0.00 | 67 | 1022.2 |
| 20260509042128 | 20 | 169 | 9.7 | 16.1 | 0.00 | 0.00 | 0.00 | 68 | 1022.2 |
| 20260509040017 | 20 | 189 | 8.0 | 19.3 | 0.00 | 0.00 | 0.00 | 66 | 1022.3 |
| 20260509033819 | 20 | 149 | 8.0 | 20.9 | 0.00 | 0.00 | 0.00 | 66 | 1022.3 |
| 20260509032803 | 20 | 173 | 11.3 | 20.9 | 0.00 | 0.00 | 0.00 | 67 | 1022.4 |
| 20260509031748 | 20 | 162 | 9.7 | 17.7 | 0.00 | 0.00 | 0.00 | 68 | 1022.4 |
| 20260509025636 | 20 | 148 | 9.7 | 19.3 | 0.00 | 0.00 | 0.00 | 66 | 1022.5 |
| 20260509024631 | 20 | 146 | 9.7 | 16.1 | 0.00 | 0.00 | 0.00 | 63 | 1022.6 |
| 20260509023655 | 20 | 210 | 8.0 | 16.1 | 0.00 | 0.00 | 0.00 | 65 | 1022.7 |
| 20260509022715 | 21 | 133 | 8.0 | 14.5 | 0.00 | 0.00 | 0.00 | 64 | 1022.9 |
| 20260509020522 | 21 | 179 | 4.8 | 11.3 | 0.00 | 0.00 | 0.00 | 58 | 1023.0 |
| 20260509015458 | 21 | 169 | 4.8 | 12.9 | 0.00 | 0.00 | 0.00 | 57 | 1023.1 |
| 20260509014508 | 21 | 196 | 4.8 | 12.9 | 0.00 | 0.00 | 0.00 | 57 | 1023.2 |
| 20260509013451 | 21 | 247 | 6.4 | 11.3 | 0.00 | 0.00 | 0.00 | 57 | 1023.4 |
| 20260509012513 | 21 | 180 | 4.8 | 12.9 | 0.00 | 0.00 | 0.00 | 56 | 1023.5 |
| 20260509011536 | 21 | 180 | 4.8 | 12.9 | 0.00 | 0.00 | 0.00 | 58 | 1023.7 |
| 20260509010523 | 21 | 196 | 4.8 | 11.3 | 0.00 | 0.00 | 0.00 | 59 | 1023.7 |
| 20260509005539 | 21 | 200 | 4.8 | 9.7 | 0.00 | 0.00 | 0.00 | 58 | 1023.9 |
| 20260509004603 | 21 | 193 | 4.8 | 11.3 | 0.00 | 0.00 | 0.00 | 58 | 1024.0 |
| 20260509002441 | 21 | 221 | 3.2 | 12.9 | 0.00 | 0.00 | 0.00 | 59 | 1024.0 |
| 20260509001422 | 20 | 245 | 3.2 | 19.3 | 0.00 | 0.00 | 0.00 | 60 | 1024.1 |
| 20260508235325 | 20 | 305 | 3.2 | 11.3 | 0.00 | 0.00 | 0.00 | 62 | 1024.1 |
| 20260508234322 | 20 | 248 | 4.8 | 11.3 | 0.00 | 0.00 | 0.00 | 61 | 1024.1 |
| 20260508233252 | 18 | 272 | 4.8 | 11.3 | 0.00 | 0.00 | 0.00 | 64 | 1024.1 |
| 20260508232314 | 18 | 300 | 3.2 | 9.7 | 0.00 | 0.00 | 0.00 | 65 | 1024.0 |
| 20260508230233 | 16 | 8 | 3.2 | 12.9 | 0.00 | 0.00 | 0.00 | 71 | 1024.0 |
| 20260508225229 | 16 | 292 | 4.8 | 12.9 | 0.00 | 0.00 | 0.00 | 72 | 1024.0 |
| 20260508224217 | 15 | 321 | 6.4 | 12.9 | 0.00 | 0.00 | 0.00 | 73 | 1024.0 |
| 20260508223152 | 15 | 319 | 4.8 | 12.9 | 0.00 | 0.00 | 0.00 | 75 | 1023.9 |
| 20260508222213 | 14 | 309 | 4.8 | 11.3 | 0.00 | 0.00 | 0.00 | 77 | 1023.9 |
| 20260508221200 | 13 | 310 | 3.2 | 11.3 | 0.00 | 0.00 | 0.00 | 79 | 1023.8 |
| 20260508220152 | 13 | 307 | 4.8 | 9.7 | 0.00 | 0.00 | 0.00 | 80 | 1023.7 |
| 20260508215139 | 12 | 285 | 1.6 | 8.0 | 0.00 | 0.00 | 0.00 | 81 | 1023.6 |
| 20260508214146 | 12 | 316 | 0.0 | 4.8 | 0.00 | 0.00 | 0.00 | 82 | 1023.5 |
| 20260508213140 | 11 | 302 | 1.6 | 1.6 | 0.00 | 0.00 | 0.00 | 82 | 1023.4 |
| 20260508212147 | 11 | 320 | 3.2 | 9.7 | 0.00 | 0.00 | 0.00 | 82 | 1023.2 |
| 20260508211203 | 11 | 304 | 1.6 | 11.3 | 0.00 | 0.00 | 0.00 | 82 | 1023.2 |
| 20260508210222 | 11 | 319 | 3.2 | 11.3 | 0.00 | 0.00 | 0.00 | 82 | 1023.1 |
| 20260508205226 | 11 | 326 | 1.6 | 9.7 | 0.00 | 0.00 | 0.00 | 82 | 1022.8 |
| 20260508204219 | 11 | 313 | 1.6 | 9.7 | 0.00 | 0.00 | 0.00 | 81 | 1022.7 |
| 20260508203206 | 11 | 306 | 1.6 | 8.0 | 0.00 | 0.00 | 0.00 | 81 | 1022.6 |
| 20260508202137 | 11 | 307 | 1.6 | 8.0 | 0.00 | 0.00 | 0.00 | 81 | 1022.5 |
| 20260508200024 | 12 | 310 | 1.6 | 12.9 | 0.00 | 0.00 | 0.00 | 79 | 1022.3 |
| 20260508195037 | 12 | 321 | 1.6 | 12.9 | 0.00 | 0.00 | 0.00 | 80 | 1022.2 |
| 20260508191645 | 11 | 283 | 0.0 | 8.0 | 0.00 | 0.00 | 0.00 | 82 | 1021.6 |
| 20260508184313 | 11 | 314 | 1.6 | 6.4 | 0.00 | 0.00 | 0.00 | 81 | 1021.6 |
| 20260508182149 | 11 | 319 | 0.0 | 4.8 | 0.00 | 0.00 | 0.00 | 81 | 1021.6 |
| 20260508181206 | 11 | 334 | 0.0 | 3.2 | 0.00 | 0.00 | 0.00 | 80 | 1021.6 |
| 20260508175118 | 11 | 310 | 0.0 | 4.8 | 0.00 | 0.00 | 0.00 | 81 | 1021.4 |
| 20260508174115 | 11 | 318 | 1.6 | 0.0 | 0.00 | 0.00 | 0.00 | 80 | 1021.3 |
| 20260508173104 | 11 | 295 | 1.6 | 6.4 | 0.00 | 0.00 | 0.00 | 80 | 1021.3 |
| 20260508172109 | 11 | 311 | 3.2 | 8.0 | 0.00 | 0.00 | 0.00 | 80 | 1021.3 |
| 20260508171039 | 11 | 282 | 3.2 | 8.0 | 0.00 | 0.00 | 0.00 | 80 | 1021.3 |
| 20260508170055 | 11 | 337 | 1.6 | 4.8 | 0.00 | 0.00 | 0.00 | 80 | 1021.3 |
| 20260508165114 | 11 | 317 | 0.0 | 3.2 | 0.00 | 0.00 | 0.00 | 79 | 1021.2 |
| 20260508164128 | 11 | 334 | 1.6 | 3.2 | 0.00 | 0.00 | 0.00 | 79 | 1021.1 |
| 20260508163107 | 11 | 326 | 0.0 | 3.2 | 0.00 | 0.00 | 0.00 | 79 | 1021.2 |
| 20260508162036 | 11 | 311 | 1.6 | 3.2 | 0.00 | 0.00 | 0.00 | 79 | 1021.2 |
| 20260508161008 | 11 | 307 | 0.0 | 1.6 | 0.00 | 0.00 | 0.00 | 79 | 1021.3 |
| 20260508154858 | 11 | 315 | 1.6 | 4.8 | 0.00 | 0.00 | 0.00 | 79 | 1021.3 |
| 20260508153828 | 11 | 324 | 1.6 | 6.4 | 0.00 | 0.00 | 0.00 | 78 | 1021.3 |
| 20260508152806 | 11 | 319 | 3.2 | 6.4 | 0.00 | 0.00 | 0.00 | 78 | 1021.3 |
| 20260508151813 | 11 | 314 | 0.0 | 3.2 | 0.00 | 0.00 | 0.00 | 78 | 1021.2 |
| 20260508150802 | 12 | 326 | 0.0 | 0.0 | 0.00 | 0.00 | 0.00 | 77 | 1021.3 |
| 20260508145732 | 12 | 326 | 0.0 | 0.0 | 0.00 | 0.00 | 0.00 | 77 | 1021.3 |
| 20260508144728 | 12 | 326 | 0.0 | 0.0 | 0.00 | 0.00 | 0.00 | 76 | 1021.2 |
| 20260508143708 | 12 | 324 | 0.0 | 0.0 | 0.00 | 0.00 | 0.00 | 75 | 1021.2 |
| 20260508141538 | 12 | 325 | 1.6 | 4.8 | 0.00 | 0.00 | 0.00 | 74 | 1021.0 |
| 20260508140547 | 13 | 309 | 1.6 | 6.4 | 0.00 | 0.00 | 0.00 | 74 | 1020.9 |
| 20260508135533 | 13 | 315 | 1.6 | 6.4 | 0.00 | 0.00 | 0.00 | 73 | 1020.8 |
| 20260508134550 | 13 | 331 | 1.6 | 4.8 | 0.00 | 0.00 | 0.00 | 72 | 1020.8 |
| 20260508133537 | 13 | 333 | 0.0 | 3.2 | 0.00 | 0.00 | 0.00 | 71 | 1020.8 |
| 20260508132525 | 14 | 335 | 1.6 | 4.8 | 0.00 | 0.00 | 0.00 | 70 | 1020.9 |
| 20260508131505 | 14 | 340 | 1.6 | 8.0 | 0.00 | 0.00 | 0.00 | 69 | 1020.7 |
| 20260508130502 | 15 | 359 | 1.6 | 8.0 | 0.00 | 0.00 | 0.00 | 68 | 1020.8 |
| 20260508125519 | 15 | 300 | 1.6 | 8.0 | 0.00 | 0.00 | 0.00 | 68 | 1020.7 |
| 20260508122255 | 15 | 325 | 3.2 | 12.9 | 0.00 | 0.00 | 0.00 | 67 | 1020.6 |
| 20260508121223 | 15 | 224 | 3.2 | 16.1 | 0.00 | 0.00 | 0.00 | 66 | 1020.7 |
| 20260508120156 | 15 | 238 | 3.2 | 16.1 | 0.00 | 0.00 | 0.00 | 66 | 1020.6 |
| 20260508115141 | 15 | 302 | 3.2 | 11.3 | 0.00 | 0.00 | 0.00 | 66 | 1020.6 |
| 20260508114121 | 15 | 250 | 3.2 | 14.5 | 0.00 | 0.00 | 0.00 | 65 | 1020.5 |
| 20260508112020 | 16 | 275 | 3.2 | 14.5 | 0.00 | 0.00 | 0.00 | 64 | 1020.4 |
| 20260508111007 | 16 | 232 | 4.8 | 14.5 | 0.00 | 0.00 | 0.00 | 63 | 1020.5 |
| 20260508105940 | 16 | 250 | 3.2 | 11.3 | 0.00 | 0.00 | 0.00 | 63 | 1020.5 |
| 20260508104931 | 16 | 269 | 4.8 | 22.5 | 0.00 | 0.00 | 0.00 | 62 | 1020.4 |
| 20260508103938 | 16 | 236 | 6.4 | 22.5 | 0.00 | 0.00 | 0.00 | 62 | 1020.2 |
| 20260508102920 | 16 | 238 | 8.0 | 17.7 | 0.00 | 0.00 | 0.00 | 61 | 1020.1 |
| 20260508101935 | 16 | 207 | 6.4 | 17.7 | 0.00 | 0.00 | 0.00 | 61 | 1020.0 |
| 20260508100935 | 16 | 276 | 4.8 | 17.7 | 0.00 | 0.00 | 0.00 | 60 | 1019.9 |
| 20260508095941 | 17 | 204 | 6.4 | 17.7 | 0.00 | 0.00 | 0.00 | 59 | 1019.8 |
| 20260508094952 | 17 | 229 | 6.4 | 19.3 | 0.00 | 0.00 | 0.00 | 59 | 1019.7 |
| 20260508092801 | 17 | 293 | 8.0 | 19.3 | 0.00 | 0.00 | 0.00 | 58 | 1019.3 |
| 20260508091746 | 17 | 241 | 6.4 | 14.5 | 0.00 | 0.00 | 0.00 | 57 | 1019.1 |
| 20260508090759 | 17 | 226 | 6.4 | 14.5 | 0.00 | 0.00 | 0.00 | 57 | 1019.1 |
| 20260508085746 | 18 | 243 | 6.4 | 14.5 | 0.00 | 0.00 | 0.00 | 56 | 1018.9 |
| 20260508084752 | 17 | 248 | 4.8 | 12.9 | 0.00 | 0.00 | 0.00 | 57 | 1018.8 |
| 20260508083738 | 18 | 245 | 0.0 | 8.0 | 0.00 | 0.00 | 0.00 | 56 | 1018.5 |
| 20260508081641 | 18 | 262 | 3.2 | 12.9 | 0.00 | 0.00 | 0.00 | 55 | 1018.1 |
| 20260508080609 | 18 | 219 | 3.2 | 8.0 | 0.00 | 0.00 | 0.00 | 54 | 1017.9 |
| 20260508075611 | 18 | 243 | 3.2 | 9.7 | 0.00 | 0.00 | 0.00 | 54 | 1017.7 |
| 20260508074609 | 18 | 205 | 3.2 | 9.7 | 0.00 | 0.00 | 0.00 | 54 | 1017.5 |
| 20260508073558 | 18 | 230 | 3.2 | 12.9 | 0.00 | 0.00 | 0.00 | 52 | 1017.3 |
| 20260508072553 | 19 | 250 | 4.8 | 14.5 | 0.00 | 0.00 | 0.00 | 52 | 1017.0 |
| 20260508070448 | 20 | 256 | 3.2 | 11.3 | 0.00 | 0.00 | 0.00 | 51 | 1016.6 |